Location: Berg
(47.2344°N, 9.5296°E)
Time: 23:14:53
(UTC+00:00)

AAUSAT CUBESAT 2 - Pass Details

Date: 05 December 2021
Orbit: 571 x 586 km, 97.5° (Epoch: 19 January)

Event Time Altitude Azimuth Distance (km) Brightness Sun altitude
Rises 03:55:31 0° 22° (NNE) 2,798 ? -29.1°
Reaches altitude 10° 03:57:52 10° 33° (NNE) 1,897 ? -28.7°
Maximum altitude 04:01:32 31° 96° (E) 1,035 ? -28.1°
Drops below altitude 10° 04:05:11 10° 159° (SSE) 1,891 ? -27.5°
Sets 04:07:32 0° 170° (S) 2,787 ? -27.1°
